CSI452 KABQ-KBOI

Flight info

Callsign CSI452
Flight time N/A
Altitude 16000
Route ABQ V68 HUXZI/N0268F280
Aircraft BE20/L-SBGRY/S

Departure

Time 2026-05-05 04:47
Airport Albuquerque International Sunport (KABQ)

Arrival

Time N/A
Airport Boise Air Terminal/Gowen Field (KBOI)
Time Latitude Longitude Altitude Speed Heading
2026-05-05 04:27 35.04796 -106.62086 5359 ft 0 kts
2026-05-05 04:29 35.04797 -106.62086 5359 ft 0 kts
2026-05-05 04:37 35.04795 -106.62086 5359 ft 1 kts
2026-05-05 04:37 35.04781 -106.62091 5359 ft 3 kts 32°
2026-05-05 04:37 35.04769 -106.62109 5359 ft 3 kts 66°
2026-05-05 04:37 35.04766 -106.62133 5359 ft 3 kts 90°
2026-05-05 04:38 35.04766 -106.62152 5359 ft 0 kts 90°
2026-05-05 04:38 35.04766 -106.62151 5359 ft 1 kts 90°
2026-05-05 04:38 35.04759 -106.62141 5359 ft 5 kts 134°
2026-05-05 04:38 35.04714 -106.62085 5359 ft 13 kts 134°
2026-05-05 04:39 35.04638 -106.62008 5359 ft 9 kts 144°
2026-05-05 04:39 35.04600 -106.61974 5359 ft 7 kts 174°
2026-05-05 04:39 35.04547 -106.61968 5359 ft 8 kts 176°
2026-05-05 04:39 35.04489 -106.61968 5359 ft 9 kts 176°
2026-05-05 04:40 35.04438 -106.61943 5359 ft 9 kts 104°
2026-05-05 04:40 35.04437 -106.61836 5359 ft 13 kts 81°
2026-05-05 04:40 35.04469 -106.61807 5359 ft 4 kts 84°
2026-05-05 04:40 35.04461 -106.61792 5359 ft 1 kts 147°
2026-05-05 04:41 35.04455 -106.61716 5359 ft 17 kts 90°
2026-05-05 04:41 35.04487 -106.61652 5359 ft 5 kts 358°
2026-05-05 04:41 35.04501 -106.61652 5359 ft 0 kts 358°
2026-05-05 04:41 35.04510 -106.61653 5359 ft 2 kts 358°
2026-05-05 04:42 35.04533 -106.61654 5359 ft 4 kts 358°
2026-05-05 04:42 35.04567 -106.61652 5359 ft 6 kts
2026-05-05 04:42 35.04594 -106.61626 5359 ft 6 kts 89°
2026-05-05 04:42 35.04601 -106.61579 5359 ft 6 kts 82°
2026-05-05 04:43 35.04602 -106.61532 5359 ft 5 kts 90°
2026-05-05 04:43 35.04602 -106.61493 5359 ft 4 kts 90°
2026-05-05 04:43 35.04602 -106.61458 5359 ft 4 kts 91°
2026-05-05 04:43 35.04602 -106.61422 5359 ft 5 kts 91°
2026-05-05 04:44 35.04601 -106.61379 5359 ft 5 kts 90°
2026-05-05 04:44 35.04601 -106.61332 5359 ft 6 kts 90°
2026-05-05 04:44 35.04601 -106.61280 5359 ft 7 kts 89°
2026-05-05 04:44 35.04600 -106.61218 5359 ft 8 kts 91°
2026-05-05 04:45 35.04600 -106.61133 5359 ft 14 kts 90°
2026-05-05 04:45 35.04590 -106.61039 5359 ft 7 kts 158°
2026-05-05 04:45 35.04544 -106.61048 5359 ft 8 kts 188°
2026-05-05 04:45 35.04496 -106.61056 5359 ft 0 kts 187°
2026-05-05 04:46 35.04489 -106.61057 5359 ft 2 kts 184°
2026-05-05 04:46 35.04451 -106.61059 5359 ft 6 kts 184°
2026-05-05 04:46 35.04428 -106.61076 5359 ft 0 kts 271°
2026-05-05 04:46 35.04423 -106.61212 5359 ft 47 kts 261°
2026-05-05 04:47 35.04421 -106.61729 5360 ft 78 kts 263°
2026-05-05 04:47 35.04449 -106.62482 5566 ft 87 kts 256°
2026-05-05 04:47 35.04481 -106.63218 5866 ft 97 kts 263°
2026-05-05 04:47 35.04568 -106.64090 6064 ft 109 kts 267°
2026-05-05 04:48 35.04546 -106.64701 6201 ft 109 kts 255°
2026-05-05 04:48 35.04462 -106.65639 6428 ft 119 kts 263°
2026-05-05 04:48 35.04507 -106.66784 6670 ft 145 kts 267°
2026-05-05 04:48 35.04560 -106.68061 7041 ft 154 kts 268°
2026-05-05 04:49 35.04604 -106.69393 7433 ft 160 kts 267°
2026-05-05 04:49 35.04526 -106.70758 7810 ft 162 kts 259°
2026-05-05 04:49 35.04401 -106.72136 8190 ft 165 kts 260°
2026-05-05 04:49 35.04309 -106.73547 8569 ft 168 kts 263°
2026-05-05 04:50 35.04270 -106.74982 8952 ft 170 kts 265°
2026-05-05 04:50 35.04263 -106.76434 9329 ft 172 kts 266°
2026-05-05 04:50 35.04283 -106.77892 9709 ft 173 kts 267°
2026-05-05 04:50 35.04336 -106.79363 10079 ft 175 kts 273°
2026-05-05 04:51 35.04743 -106.80775 10466 ft 181 kts 294°
2026-05-05 04:51 35.05608 -106.81921 10835 ft 191 kts 320°
2026-05-05 04:51 35.06885 -106.82472 11233 ft 198 kts 342°
2026-05-05 04:51 35.08222 -106.82872 11610 ft 198 kts 339°
2026-05-05 04:52 35.09552 -106.83314 11984 ft 198 kts 338°
2026-05-05 04:52 35.10883 -106.83766 12359 ft 199 kts 338°
2026-05-05 04:52 35.12216 -106.84214 12739 ft 200 kts 338°
2026-05-05 04:52 35.13560 -106.84666 13113 ft 200 kts 338°
2026-05-05 04:53 35.14910 -106.85108 13487 ft 201 kts 338°
2026-05-05 04:53 35.16265 -106.85540 13866 ft 201 kts 337°
2026-05-05 04:53 35.17618 -106.85977 14242 ft 201 kts 338°
2026-05-05 04:53 35.18956 -106.86414 14611 ft 202 kts 337°
2026-05-05 04:54 35.20333 -106.86873 14782 ft 213 kts 337°
2026-05-05 04:54 35.21808 -106.87371 14821 ft 224 kts 338°
2026-05-05 04:54 35.23325 -106.87859 15037 ft 225 kts 338°
2026-05-05 04:54 35.24840 -106.88345 15262 ft 225 kts 338°
2026-05-05 04:55 35.26349 -106.88836 15487 ft 225 kts 338°
2026-05-05 04:55 35.27863 -106.89331 15712 ft 225 kts 338°
2026-05-05 04:55 35.29375 -106.89828 15898 ft 227 kts 337°
2026-05-05 04:55 35.30918 -106.90337 15997 ft 232 kts 338°
2026-05-05 04:56 35.32500 -106.90860 16010 ft 239 kts 338°
2026-05-05 04:56 35.34122 -106.91393 16006 ft 243 kts 338°
2026-05-05 04:56 35.35773 -106.91933 16004 ft 246 kts 338°
2026-05-05 04:56 35.37439 -106.92478 16002 ft 248 kts 339°
2026-05-05 04:57 35.39113 -106.93020 16004 ft 249 kts 338°
2026-05-05 04:57 35.40789 -106.93574 16003 ft 250 kts 338°
2026-05-05 04:57 35.42451 -106.94122 16002 ft 251 kts 338°
2026-05-05 04:57 35.44139 -106.94675 16002 ft 251 kts 338°
2026-05-05 04:58 35.45831 -106.95235 16001 ft 251 kts 338°
2026-05-05 04:58 35.47517 -106.95801 16002 ft 251 kts 338°
2026-05-05 04:58 35.49207 -106.96369 16002 ft 251 kts 338°
2026-05-05 04:58 35.50898 -106.96931 16002 ft 252 kts 338°
2026-05-05 04:59 35.52586 -106.97492 16002 ft 251 kts 338°
2026-05-05 04:59 35.54272 -106.98046 16002 ft 251 kts 338°
2026-05-05 04:59 35.55963 -106.98603 16002 ft 251 kts 338°
2026-05-05 04:59 35.57654 -106.99153 16005 ft 251 kts 338°
2026-05-05 05:00 35.59345 -106.99705 16006 ft 251 kts 338°
2026-05-05 05:00 35.61034 -107.00260 16008 ft 252 kts 338°
2026-05-05 05:00 35.62705 -107.00813 16007 ft 251 kts 338°
2026-05-05 05:00 35.64417 -107.01381 16008 ft 252 kts 338°
2026-05-05 05:01 35.66107 -107.01939 16008 ft 252 kts 338°
2026-05-05 05:01 35.67796 -107.02497 16007 ft 252 kts 338°
2026-05-05 05:01 35.69466 -107.03048 16009 ft 252 kts 338°
2026-05-05 05:01 35.71158 -107.03614 16009 ft 252 kts 338°
2026-05-05 05:02 35.72850 -107.04176 16010 ft 252 kts 339°
2026-05-05 05:02 35.74542 -107.04729 16010 ft 252 kts 339°
2026-05-05 05:02 35.76234 -107.05284 16008 ft 252 kts 339°
2026-05-05 05:02 35.77929 -107.05843 16003 ft 252 kts 339°
2026-05-05 05:03 35.79624 -107.06412 16004 ft 252 kts 338°
2026-05-05 05:03 35.81315 -107.06981 16000 ft 252 kts 338°
2026-05-05 05:03 35.83010 -107.07544 16000 ft 252 kts 339°
2026-05-05 05:03 35.84703 -107.08107 16000 ft 252 kts 338°
2026-05-05 05:04 35.86397 -107.08680 16000 ft 252 kts 338°
2026-05-05 05:04 35.88093 -107.09244 16000 ft 252 kts 339°
2026-05-05 05:04 35.89785 -107.09805 16000 ft 252 kts 338°
2026-05-05 05:04 35.91479 -107.10366 16006 ft 252 kts 338°
2026-05-05 05:05 35.93166 -107.10923 16013 ft 251 kts 339°
2026-05-05 05:05 35.94857 -107.11486 16015 ft 251 kts 338°
2026-05-05 05:05 35.96545 -107.12054 16016 ft 251 kts 338°
2026-05-05 05:05 35.98236 -107.12614 16016 ft 252 kts 339°
2026-05-05 05:06 35.99929 -107.13164 16017 ft 252 kts 339°
2026-05-05 05:06 36.01624 -107.13724 16011 ft 252 kts 339°
2026-05-05 05:06 36.03323 -107.14290 16003 ft 252 kts 338°
2026-05-05 05:06 36.05016 -107.14861 16001 ft 252 kts 338°
2026-05-05 05:07 36.06714 -107.15434 16000 ft 253 kts 338°
2026-05-05 05:07 36.08409 -107.16007 16000 ft 253 kts 338°
2026-05-05 05:07 36.10103 -107.16583 16000 ft 252 kts 338°
2026-05-05 05:07 36.11777 -107.17156 16003 ft 253 kts 338°
2026-05-05 05:08 36.13478 -107.17711 16001 ft 253 kts 339°
2026-05-05 05:08 36.15174 -107.18277 16001 ft 252 kts 338°
2026-05-05 05:08 36.16792 -107.19040 16002 ft 246 kts 326°
2026-05-05 05:08 36.18170 -107.20231 16007 ft 240 kts 314°
2026-05-05 05:09 36.19444 -107.21569 16003 ft 240 kts 313°
2026-05-05 05:09 36.20722 -107.22908 16001 ft 240 kts 313°
2026-05-05 05:09 36.22003 -107.24245 16000 ft 240 kts 313°
2026-05-05 05:09 36.23282 -107.25580 16000 ft 240 kts 313°
2026-05-05 05:10 36.24556 -107.26917 16000 ft 240 kts 313°
2026-05-05 05:10 36.25834 -107.28257 16001 ft 240 kts 313°
2026-05-05 05:10 36.27108 -107.29593 16002 ft 240 kts 313°
2026-05-05 05:10 36.28394 -107.30923 16002 ft 241 kts 314°
2026-05-05 05:11 36.29676 -107.32262 16002 ft 241 kts 313°
2026-05-05 05:11 36.30953 -107.33603 16001 ft 241 kts 313°
2026-05-05 05:11 36.32238 -107.34938 16001 ft 241 kts 313°
2026-05-05 05:11 36.33526 -107.36272 16001 ft 241 kts 313°
2026-05-05 05:12 36.34809 -107.37608 16001 ft 241 kts 313°
2026-05-05 05:12 36.36075 -107.38924 16001 ft 241 kts 313°
2026-05-05 05:12 36.37357 -107.40265 16003 ft 241 kts 313°
2026-05-05 05:12 36.38633 -107.41607 16001 ft 241 kts 313°
2026-05-05 05:13 36.39918 -107.42946 16002 ft 241 kts 313°
2026-05-05 05:13 36.41198 -107.44286 16002 ft 240 kts 313°
2026-05-05 05:13 36.42484 -107.45620 16002 ft 241 kts 314°
2026-05-05 05:13 36.43767 -107.46957 16001 ft 241 kts 313°
2026-05-05 05:14 36.45045 -107.48299 16000 ft 241 kts 313°
2026-05-05 05:14 36.46328 -107.49644 16003 ft 241 kts 313°
2026-05-05 05:14 36.47612 -107.50987 15999 ft 241 kts 313°
2026-05-05 05:14 36.48889 -107.52333 16000 ft 241 kts 313°
2026-05-05 05:15 36.50168 -107.53676 16000 ft 241 kts 313°
2026-05-05 05:15 36.51445 -107.55019 16000 ft 241 kts 313°
2026-05-05 05:15 36.52724 -107.56361 15999 ft 241 kts 313°
2026-05-05 05:15 36.54006 -107.57705 15999 ft 241 kts 313°
2026-05-05 05:16 36.55285 -107.59045 15998 ft 241 kts 313°
2026-05-05 05:16 36.56566 -107.60389 15999 ft 241 kts 313°
2026-05-05 05:16 36.57825 -107.61713 15998 ft 240 kts 313°
2026-05-05 05:16 36.59113 -107.63084 15999 ft 240 kts 313°
2026-05-05 05:17 36.60386 -107.64435 15998 ft 241 kts 313°
2026-05-05 05:17 36.61672 -107.65776 15999 ft 241 kts 313°
2026-05-05 05:17 36.62937 -107.67102 15997 ft 241 kts 313°
2026-05-05 05:17 36.64218 -107.68452 15995 ft 241 kts 313°
2026-05-05 05:18 36.65494 -107.69804 15997 ft 241 kts 313°
2026-05-05 05:18 36.66770 -107.71150 15997 ft 241 kts 313°
2026-05-05 05:18 36.68053 -107.72500 15995 ft 241 kts 313°
2026-05-05 05:18 36.69333 -107.73853 15994 ft 241 kts 313°
2026-05-05 05:19 36.70615 -107.75207 15994 ft 241 kts 313°
2026-05-05 05:19 36.71897 -107.76556 15994 ft 242 kts 313°
2026-05-05 05:19 36.73186 -107.77907 15976 ft 242 kts 313°
2026-05-05 05:19 36.74474 -107.79268 15952 ft 243 kts 313°
2026-05-05 05:20 36.75760 -107.80628 15946 ft 243 kts 313°
2026-05-05 05:20 36.77052 -107.81992 15944 ft 242 kts 313°
2026-05-05 05:20 36.78330 -107.83351 15943 ft 242 kts 313°
2026-05-05 05:20 36.79613 -107.84717 15943 ft 242 kts 313°
2026-05-05 05:21 36.80892 -107.86078 15943 ft 242 kts 313°
2026-05-05 05:21 36.82158 -107.87422 15943 ft 242 kts 313°
2026-05-05 05:21 36.83438 -107.88781 15943 ft 242 kts 313°
2026-05-05 05:21 36.84715 -107.90135 15943 ft 242 kts 313°
2026-05-05 05:22 36.85998 -107.91497 15943 ft 242 kts 313°
2026-05-05 05:22 36.87281 -107.92859 15943 ft 241 kts 313°
2026-05-05 05:22 36.88560 -107.94219 15945 ft 242 kts 313°
2026-05-05 05:22 36.89835 -107.95580 15943 ft 241 kts 313°
2026-05-05 05:23 36.91113 -107.96944 15944 ft 242 kts 313°
2026-05-05 05:23 36.92394 -107.98310 15945 ft 242 kts 313°
2026-05-05 05:23 36.93673 -107.99670 15945 ft 242 kts 313°
2026-05-05 05:23 36.94959 -108.01031 15945 ft 242 kts 312°
2026-05-05 05:24 36.96244 -108.02396 15947 ft 243 kts 312°
2026-05-05 05:24 36.97514 -108.03755 15945 ft 243 kts 312°
2026-05-05 05:24 36.98796 -108.05127 15946 ft 243 kts 312°
2026-05-05 05:24 37.00078 -108.06505 15948 ft 243 kts 312°
2026-05-05 05:25 37.01362 -108.07883 15948 ft 243 kts 312°
2026-05-05 05:25 37.02643 -108.09258 15948 ft 243 kts 312°
2026-05-05 05:25 37.03934 -108.10631 15948 ft 243 kts 312°
2026-05-05 05:25 37.05229 -108.11998 15949 ft 243 kts 312°
2026-05-05 05:26 37.06519 -108.13376 15949 ft 243 kts 312°
2026-05-05 05:26 37.07805 -108.14755 15949 ft 244 kts 312°
2026-05-05 05:26 37.09090 -108.16138 15948 ft 244 kts 312°
2026-05-05 05:26 37.10378 -108.17525 15949 ft 244 kts 312°
2026-05-05 05:27 37.11668 -108.18907 15948 ft 244 kts 312°
2026-05-05 05:27 37.12955 -108.20299 15948 ft 244 kts 312°
2026-05-05 05:27 37.15541 -108.23064 15949 ft 244 kts 312°
2026-05-05 05:28 37.16834 -108.24446 15945 ft 245 kts 312°
2026-05-05 05:28 37.18130 -108.25837 15940 ft 244 kts 311°
2026-05-05 05:28 37.19417 -108.27227 15941 ft 244 kts 311°
2026-05-05 05:28 37.20704 -108.28612 15942 ft 244 kts 312°
2026-05-05 05:29 37.21983 -108.29982 15941 ft 244 kts 312°
2026-05-05 05:29 37.23278 -108.31373 15941 ft 245 kts 312°
2026-05-05 05:29 37.24570 -108.32764 15943 ft 245 kts 312°
2026-05-05 05:29 37.25863 -108.34155 15942 ft 245 kts 312°
2026-05-05 05:30 37.27156 -108.35541 15944 ft 245 kts 312°
2026-05-05 05:30 37.28447 -108.36937 15942 ft 245 kts 311°
2026-05-05 05:30 37.29733 -108.38340 15943 ft 245 kts 311°
2026-05-05 05:30 37.31023 -108.39737 15942 ft 245 kts 311°
2026-05-05 05:31 37.32315 -108.41127 15942 ft 244 kts 311°
2026-05-05 05:31 37.33605 -108.42528 15942 ft 244 kts 311°
2026-05-05 05:31 37.34457 -108.43452 15940 ft 244 kts 311°
2026-05-05 05:31 37.35734 -108.44853 15943 ft 244 kts 311°
2026-05-05 05:32 37.37016 -108.46250 15943 ft 244 kts 311°
2026-05-05 05:32 37.38301 -108.47643 15945 ft 244 kts 311°
2026-05-05 05:32 37.39591 -108.49032 15944 ft 244 kts 311°
2026-05-05 05:32 37.40881 -108.50428 15942 ft 244 kts 311°
2026-05-05 05:33 37.42162 -108.51834 15944 ft 244 kts 311°
2026-05-05 05:33 37.43449 -108.53225 15945 ft 244 kts 311°
2026-05-05 05:33 37.44742 -108.54619 15944 ft 244 kts 311°
2026-05-05 05:33 37.46021 -108.55993 15945 ft 245 kts 311°
2026-05-05 05:34 37.47314 -108.57390 15946 ft 245 kts 311°
2026-05-05 05:34 37.48602 -108.58788 15945 ft 244 kts 311°
2026-05-05 05:34 37.49893 -108.60184 15948 ft 245 kts 311°
2026-05-05 05:34 37.51185 -108.61585 15947 ft 245 kts 311°
2026-05-05 05:35 37.52476 -108.62989 15947 ft 245 kts 311°
2026-05-05 05:35 37.53767 -108.64395 15947 ft 245 kts 311°
2026-05-05 05:35 37.55055 -108.65803 15947 ft 245 kts 311°
2026-05-05 05:35 37.56339 -108.67206 15948 ft 245 kts 311°
2026-05-05 05:36 37.57634 -108.68616 15948 ft 245 kts 311°
2026-05-05 05:36 37.58928 -108.70016 15949 ft 245 kts 311°
2026-05-05 05:36 37.60220 -108.71424 15946 ft 245 kts 311°
2026-05-05 05:36 37.61512 -108.72834 15945 ft 246 kts 311°
2026-05-05 05:37 37.62795 -108.74257 15945 ft 245 kts 310°
2026-05-05 05:37 37.64079 -108.75676 15945 ft 246 kts 311°
2026-05-05 05:37 37.65357 -108.77075 15945 ft 246 kts 311°
2026-05-05 05:37 37.66647 -108.78487 15944 ft 246 kts 311°
2026-05-05 05:38 37.67938 -108.79901 15945 ft 246 kts 311°
2026-05-05 05:38 37.69229 -108.81315 15945 ft 246 kts 311°
2026-05-05 05:38 37.70528 -108.82730 15944 ft 246 kts 311°
2026-05-05 05:38 37.71824 -108.84147 15943 ft 246 kts 310°
2026-05-05 05:39 37.73105 -108.85569 15945 ft 245 kts 310°
2026-05-05 05:39 37.74395 -108.86982 15946 ft 246 kts 310°
2026-05-05 05:39 37.75697 -108.88395 15944 ft 246 kts 311°
2026-05-05 05:39 37.76989 -108.89817 15946 ft 246 kts 311°
2026-05-05 05:40 37.78284 -108.91237 15945 ft 247 kts 310°
2026-05-05 05:40 37.79585 -108.92664 15945 ft 246 kts 310°
2026-05-05 05:40 37.80878 -108.94086 15945 ft 247 kts 310°
2026-05-05 05:40 37.82167 -108.95510 15947 ft 246 kts 310°
2026-05-05 05:41 37.83456 -108.96943 15947 ft 246 kts 310°
2026-05-05 05:41 37.84747 -108.98370 15947 ft 247 kts 310°
2026-05-05 05:41 37.86040 -108.99800 15947 ft 247 kts 310°
2026-05-05 05:41 37.87337 -109.01227 15948 ft 247 kts 310°
2026-05-05 05:42 37.88637 -109.02648 15948 ft 247 kts 310°
2026-05-05 05:42 37.89927 -109.04050 15950 ft 247 kts 310°
2026-05-05 05:42 37.91230 -109.05474 15951 ft 248 kts 310°
2026-05-05 05:42 37.92529 -109.06903 15951 ft 248 kts 310°
2026-05-05 05:43 37.93826 -109.08342 15953 ft 247 kts 310°
2026-05-05 05:43 37.95121 -109.09776 15955 ft 248 kts 310°
2026-05-05 05:43 37.96420 -109.11219 15954 ft 248 kts 310°
2026-05-05 05:43 37.97714 -109.12657 15949 ft 248 kts 309°
2026-05-05 05:44 37.99010 -109.14096 15951 ft 248 kts 310°
2026-05-05 05:44 38.00310 -109.15534 15952 ft 248 kts 309°
2026-05-05 05:44 38.01612 -109.16975 15953 ft 248 kts 309°
2026-05-05 05:44 38.02913 -109.18421 15952 ft 249 kts 309°
2026-05-05 05:45 38.04215 -109.19870 15952 ft 249 kts 309°
2026-05-05 05:45 38.05517 -109.21321 15951 ft 249 kts 309°
2026-05-05 05:45 38.06815 -109.22771 15951 ft 249 kts 309°
2026-05-05 05:45 38.08115 -109.24221 15951 ft 249 kts 309°
2026-05-05 05:46 38.09420 -109.25672 15950 ft 249 kts 309°
2026-05-05 05:46 38.10709 -109.27106 15948 ft 250 kts 309°
2026-05-05 05:46 38.12019 -109.28563 15947 ft 250 kts 309°
2026-05-05 05:46 38.13321 -109.30020 15944 ft 250 kts 309°
2026-05-05 05:47 38.14626 -109.31485 15943 ft 250 kts 309°
2026-05-05 05:47 38.15929 -109.32939 15939 ft 250 kts 309°
2026-05-05 05:47 38.17245 -109.34395 15937 ft 250 kts 309°
2026-05-05 05:47 38.18552 -109.35858 15930 ft 250 kts 309°
2026-05-05 05:48 38.19866 -109.37312 15927 ft 251 kts 309°
2026-05-05 05:48 38.21191 -109.38766 15921 ft 251 kts 309°
2026-05-05 05:48 38.22504 -109.40224 15916 ft 251 kts 309°
2026-05-05 05:48 38.23819 -109.41693 15912 ft 250 kts 309°
2026-05-05 05:49 38.25126 -109.43160 15907 ft 250 kts 309°
2026-05-05 05:49 38.26417 -109.44615 15902 ft 250 kts 308°
2026-05-05 05:49 38.27724 -109.46083 15898 ft 251 kts 309°
2026-05-05 05:49 38.29031 -109.47546 15891 ft 251 kts 309°
2026-05-05 05:50 38.30341 -109.49013 15885 ft 251 kts 309°
2026-05-05 05:50 38.31651 -109.50484 15876 ft 251 kts 309°
2026-05-05 05:50 38.32965 -109.51958 15870 ft 252 kts 309°
2026-05-05 05:50 38.34277 -109.53425 15862 ft 252 kts 309°
2026-05-05 05:51 38.35595 -109.54896 15855 ft 252 kts 309°
2026-05-05 05:51 38.36909 -109.56370 15849 ft 251 kts 309°
2026-05-05 05:51 38.38221 -109.57847 15843 ft 251 kts 309°
2026-05-05 05:51 38.39533 -109.59321 15836 ft 251 kts 308°
2026-05-05 05:52 38.40845 -109.60796 15830 ft 251 kts 308°
2026-05-05 05:52 38.42152 -109.62280 15825 ft 251 kts 308°
2026-05-05 05:52 38.43466 -109.63760 15819 ft 251 kts 309°
2026-05-05 05:52 38.44761 -109.65216 15813 ft 251 kts 308°
2026-05-05 05:53 38.46082 -109.66714 15810 ft 251 kts 308°
2026-05-05 05:53 38.47374 -109.68176 15805 ft 251 kts 308°
2026-05-05 05:53 38.48684 -109.69659 15801 ft 251 kts 308°
2026-05-05 05:53 38.49992 -109.71138 15796 ft 251 kts 308°
2026-05-05 05:54 38.51298 -109.72619 15793 ft 251 kts 308°
2026-05-05 05:54 38.52605 -109.74104 15790 ft 251 kts 308°
2026-05-05 05:54 38.53914 -109.75582 15788 ft 251 kts 309°
2026-05-05 05:54 38.55226 -109.77061 15784 ft 251 kts 309°
2026-05-05 05:55 38.56539 -109.78538 15782 ft 252 kts 309°
2026-05-05 05:55 38.57854 -109.80014 15779 ft 252 kts 309°
2026-05-05 05:55 38.59169 -109.81498 15776 ft 251 kts 309°
2026-05-05 05:55 38.60478 -109.82977 15774 ft 252 kts 309°
2026-05-05 05:56 38.61771 -109.84446 15773 ft 251 kts 308°
2026-05-05 05:56 38.63080 -109.85929 15772 ft 251 kts 309°
2026-05-05 05:56 38.64387 -109.87413 15771 ft 251 kts 309°
2026-05-05 05:56 38.65693 -109.88900 15771 ft 251 kts 308°
2026-05-05 05:57 38.66997 -109.90389 15770 ft 251 kts 308°
2026-05-05 05:57 38.68295 -109.91879 15770 ft 251 kts 308°
2026-05-05 05:57 38.69595 -109.93364 15770 ft 251 kts 308°
2026-05-05 05:57 38.70897 -109.94845 15770 ft 251 kts 309°
2026-05-05 05:58 38.72204 -109.96333 15771 ft 251 kts 309°
2026-05-05 05:58 38.73507 -109.97819 15771 ft 251 kts 309°
2026-05-05 05:58 38.74812 -109.99306 15771 ft 251 kts 309°
2026-05-05 05:58 38.76115 -110.00792 15772 ft 251 kts 308°
2026-05-05 05:59 38.77422 -110.02278 15770 ft 251 kts 308°
2026-05-05 05:59 38.78729 -110.03776 15768 ft 252 kts 308°
2026-05-05 05:59 38.80038 -110.05274 15767 ft 252 kts 308°
2026-05-05 05:59 38.81346 -110.06769 15767 ft 252 kts 308°
2026-05-05 06:00 38.82657 -110.08265 15767 ft 252 kts 308°
2026-05-05 06:00 38.83955 -110.09743 15767 ft 252 kts 308°
2026-05-05 06:00 38.85274 -110.11262 15768 ft 252 kts 308°
2026-05-05 06:00 38.86561 -110.12745 15768 ft 252 kts 308°
2026-05-05 06:01 38.87868 -110.14243 15769 ft 252 kts 308°
2026-05-05 06:01 38.89179 -110.15748 15769 ft 252 kts 308°
2026-05-05 06:01 38.90487 -110.17250 15769 ft 253 kts 308°
2026-05-05 06:01 38.91799 -110.18756 15770 ft 253 kts 308°
2026-05-05 06:02 38.93113 -110.20259 15771 ft 253 kts 308°
2026-05-05 06:02 38.94425 -110.21765 15770 ft 253 kts 308°
2026-05-05 06:02 38.95737 -110.23267 15770 ft 253 kts 309°
2026-05-05 06:02 38.97053 -110.24771 15770 ft 253 kts 309°
2026-05-05 06:03 38.98368 -110.26281 15769 ft 253 kts 308°
2026-05-05 06:03 38.99678 -110.27790 15770 ft 253 kts 308°
2026-05-05 06:03 39.00984 -110.29297 15770 ft 252 kts 308°
2026-05-05 06:03 39.02290 -110.30804 15770 ft 252 kts 308°
2026-05-05 06:04 39.03599 -110.32316 15768 ft 252 kts 308°
2026-05-05 06:04 39.04905 -110.33824 15770 ft 252 kts 308°
2026-05-05 06:04 39.06198 -110.35316 15769 ft 253 kts 308°
2026-05-05 06:04 39.07504 -110.36830 15768 ft 253 kts 308°
2026-05-05 06:05 39.08810 -110.38342 15769 ft 253 kts 309°
2026-05-05 06:05 39.10120 -110.39855 15769 ft 253 kts 309°
2026-05-05 06:05 39.11431 -110.41368 15769 ft 253 kts 309°
2026-05-05 06:05 39.12745 -110.42885 15768 ft 253 kts 309°
2026-05-05 06:06 39.14052 -110.44397 15768 ft 253 kts 309°
2026-05-05 06:06 39.15363 -110.45914 15767 ft 253 kts 309°
2026-05-05 06:06 39.16672 -110.47431 15766 ft 253 kts 308°
2026-05-05 06:06 39.17982 -110.48950 15766 ft 253 kts 308°
2026-05-05 06:07 39.19290 -110.50469 15765 ft 253 kts 308°
2026-05-05 06:07 39.20599 -110.51988 15764 ft 253 kts 308°
2026-05-05 06:07 39.21907 -110.53506 15764 ft 253 kts 309°
2026-05-05 06:07 39.23198 -110.55002 15763 ft 253 kts 308°
2026-05-05 06:08 39.24505 -110.56520 15762 ft 253 kts 308°
2026-05-05 06:08 39.25811 -110.58043 15761 ft 253 kts 308°
2026-05-05 06:08 39.27117 -110.59566 15761 ft 253 kts 309°
2026-05-05 06:08 39.28420 -110.61085 15761 ft 253 kts 308°
2026-05-05 06:09 39.29722 -110.62608 15759 ft 253 kts 308°
2026-05-05 06:09 39.31029 -110.64134 15759 ft 253 kts 308°
2026-05-05 06:09 39.32330 -110.65651 15758 ft 253 kts 308°
2026-05-05 06:09 39.33637 -110.67175 15758 ft 253 kts 308°
2026-05-05 06:10 39.34941 -110.68698 15757 ft 253 kts 308°
2026-05-05 06:10 39.36245 -110.70221 15753 ft 253 kts 308°
2026-05-05 06:10 39.37523 -110.71714 15753 ft 253 kts 308°
2026-05-05 06:10 39.38854 -110.73271 15754 ft 253 kts 308°
2026-05-05 06:11 39.40161 -110.74801 15754 ft 253 kts 308°
2026-05-05 06:11 39.41466 -110.76329 15753 ft 253 kts 308°
2026-05-05 06:11 39.42776 -110.77851 15752 ft 253 kts 308°
2026-05-05 06:11 39.44067 -110.79361 15753 ft 253 kts 308°
2026-05-05 06:12 39.45366 -110.80897 15751 ft 253 kts 308°
2026-05-05 06:12 39.46659 -110.82444 15753 ft 253 kts 308°
2026-05-05 06:12 39.47966 -110.83971 15753 ft 253 kts 308°
2026-05-05 06:12 39.49273 -110.85502 15752 ft 253 kts 308°
2026-05-05 06:13 39.50577 -110.87033 15752 ft 253 kts 308°
2026-05-05 06:13 39.51886 -110.88568 15751 ft 253 kts 308°
2026-05-05 06:13 39.53190 -110.90100 15753 ft 253 kts 309°
2026-05-05 06:13 39.54494 -110.91640 15751 ft 253 kts 308°
2026-05-05 06:14 39.55797 -110.93179 15751 ft 253 kts 308°
2026-05-05 06:14 39.57098 -110.94715 15751 ft 254 kts 308°
2026-05-05 06:14 39.58404 -110.96260 15750 ft 254 kts 308°
2026-05-05 06:14 39.59711 -110.97800 15750 ft 254 kts 308°
2026-05-05 06:15 39.61019 -110.99339 15750 ft 254 kts 308°
2026-05-05 06:15 39.62331 -111.00884 15749 ft 254 kts 308°
2026-05-05 06:15 39.63620 -111.02407 15748 ft 254 kts 308°
2026-05-05 06:15 39.64925 -111.03948 15747 ft 254 kts 308°
2026-05-05 06:16 39.66233 -111.05494 15746 ft 254 kts 308°
2026-05-05 06:16 39.67549 -111.07061 15744 ft 254 kts 308°
2026-05-05 06:16 39.68835 -111.08594 15744 ft 254 kts 308°
2026-05-05 06:16 39.70143 -111.10141 15744 ft 254 kts 308°
2026-05-05 06:17 39.71449 -111.11692 15743 ft 254 kts 308°
2026-05-05 06:17 39.72757 -111.13236 15741 ft 255 kts 308°
2026-05-05 06:17 39.74067 -111.14794 15741 ft 255 kts 308°
2026-05-05 06:17 39.75379 -111.16348 15739 ft 255 kts 308°
2026-05-05 06:18 39.76249 -111.17375 15738 ft 255 kts 308°
2026-05-05 06:18 39.77567 -111.18933 15738 ft 256 kts 308°
2026-05-05 06:18 39.78879 -111.20494 15736 ft 255 kts 308°
2026-05-05 06:18 39.80187 -111.22057 15734 ft 255 kts 308°
2026-05-05 06:19 39.81496 -111.23618 15733 ft 255 kts 308°
2026-05-05 06:19 39.82807 -111.25177 15731 ft 255 kts 308°
2026-05-05 06:19 39.84118 -111.26740 15730 ft 255 kts 308°
2026-05-05 06:19 39.85434 -111.28308 15726 ft 256 kts 308°
2026-05-05 06:20 39.86747 -111.29871 15722 ft 256 kts 308°
2026-05-05 06:20 39.88063 -111.31433 15722 ft 256 kts 308°
2026-05-05 06:20 39.89370 -111.33002 15721 ft 256 kts 308°
2026-05-05 06:20 39.90680 -111.34571 15718 ft 256 kts 308°
2026-05-05 06:21 39.91997 -111.36140 15716 ft 256 kts 308°
2026-05-05 06:21 39.93310 -111.37709 15716 ft 256 kts 308°
2026-05-05 06:21 39.94609 -111.39257 15713 ft 256 kts 308°
2026-05-05 06:21 39.95924 -111.40829 15711 ft 256 kts 308°
2026-05-05 06:22 39.97240 -111.42402 15710 ft 256 kts 308°
2026-05-05 06:22 39.98542 -111.43983 15707 ft 256 kts 307°
2026-05-05 06:22 39.99849 -111.45567 15705 ft 256 kts 308°
2026-05-05 06:22 40.01160 -111.47143 15700 ft 256 kts 307°
2026-05-05 06:23 40.02480 -111.48720 15702 ft 257 kts 308°
2026-05-05 06:23 40.03802 -111.50297 15700 ft 257 kts 308°
2026-05-05 06:23 40.05117 -111.51874 15699 ft 257 kts 308°
2026-05-05 06:23 40.06422 -111.53446 15699 ft 258 kts 308°
2026-05-05 06:24 40.07745 -111.55035 15697 ft 258 kts 308°
2026-05-05 06:24 40.09066 -111.56618 15696 ft 258 kts 308°
2026-05-05 06:24 40.10387 -111.58207 15695 ft 258 kts 308°
2026-05-05 06:24 40.11710 -111.59797 15694 ft 258 kts 308°
2026-05-05 06:25 40.13042 -111.61383 15693 ft 258 kts 308°
2026-05-05 06:25 40.14361 -111.62977 15693 ft 258 kts 308°
2026-05-05 06:25 40.15676 -111.64574 15692 ft 258 kts 307°
2026-05-05 06:25 40.16987 -111.66176 15692 ft 258 kts 307°
2026-05-05 06:26 40.18298 -111.67777 15692 ft 258 kts 307°
2026-05-05 06:26 40.19616 -111.69373 15692 ft 258 kts 308°
2026-05-05 06:26 40.20918 -111.70943 15692 ft 258 kts 308°
2026-05-05 06:26 40.22235 -111.72538 15692 ft 258 kts 307°
2026-05-05 06:27 40.23553 -111.74132 15692 ft 258 kts 308°
2026-05-05 06:27 40.26192 -111.77320 15692 ft 258 kts 308°
2026-05-05 06:27 40.27512 -111.78917 15692 ft 258 kts 308°
2026-05-05 06:28 40.28827 -111.80512 15691 ft 258 kts 308°
2026-05-05 06:28 40.30147 -111.82114 15691 ft 258 kts 308°
2026-05-05 06:28 40.31461 -111.83711 15690 ft 258 kts 308°
2026-05-05 06:28 40.32777 -111.85311 15689 ft 258 kts 308°
2026-05-05 06:29 40.34094 -111.86915 15688 ft 258 kts 307°
2026-05-05 06:29 40.35407 -111.88516 15686 ft 258 kts 307°
2026-05-05 06:29 40.36720 -111.90115 15683 ft 258 kts 308°
2026-05-05 06:29 40.38022 -111.91700 15681 ft 258 kts 308°
2026-05-05 06:30 40.39337 -111.93303 15679 ft 258 kts 307°
2026-05-05 06:30 40.40650 -111.94905 15676 ft 258 kts 307°
2026-05-05 06:30 40.41968 -111.96513 15674 ft 258 kts 307°
2026-05-05 06:30 40.43285 -111.98120 15667 ft 258 kts 307°
2026-05-05 06:31 40.44600 -111.99728 15661 ft 258 kts 307°
2026-05-05 06:31 40.45916 -112.01344 15659 ft 259 kts 308°
2026-05-05 06:31 40.47233 -112.02960 15657 ft 259 kts 307°
2026-05-05 06:31 40.48535 -112.04540 15658 ft 259 kts 308°
2026-05-05 06:32 40.49857 -112.06152 15656 ft 259 kts 307°
2026-05-05 06:32 40.51173 -112.07765 15654 ft 259 kts 307°
2026-05-05 06:32 40.52488 -112.09379 15653 ft 259 kts 307°
2026-05-05 06:32 40.53803 -112.10997 15653 ft 258 kts 307°
2026-05-05 06:33 40.55113 -112.12617 15652 ft 258 kts 307°
2026-05-05 06:33 40.56423 -112.14237 15651 ft 259 kts 307°
2026-05-05 06:33 40.57738 -112.15852 15650 ft 259 kts 307°
2026-05-05 06:33 40.59053 -112.17467 15650 ft 259 kts 307°
2026-05-05 06:34 40.60371 -112.19083 15648 ft 259 kts 307°
2026-05-05 06:34 40.61679 -112.20704 15645 ft 258 kts 307°
2026-05-05 06:34 40.62992 -112.22325 15646 ft 259 kts 307°
2026-05-05 06:34 40.64306 -112.23942 15644 ft 259 kts 307°
2026-05-05 06:35 40.65605 -112.25538 15644 ft 259 kts 307°
2026-05-05 06:35 40.66918 -112.27153 15643 ft 259 kts 307°
2026-05-05 06:35 40.68233 -112.28776 15642 ft 258 kts 307°
2026-05-05 06:35 40.69525 -112.30405 15658 ft 257 kts 308°
2026-05-05 06:36 40.70845 -112.32017 15648 ft 259 kts 308°
2026-05-05 06:36 40.72152 -112.33639 15650 ft 258 kts 307°
2026-05-05 06:36 40.73476 -112.35261 15650 ft 260 kts 308°
2026-05-05 06:36 40.74813 -112.36874 15641 ft 261 kts 308°
2026-05-05 06:37 40.76149 -112.38496 15629 ft 261 kts 308°
2026-05-05 06:37 40.77454 -112.40109 15639 ft 260 kts 307°
2026-05-05 06:37 40.78828 -112.41718 15654 ft 260 kts 308°
2026-05-05 06:37 40.80154 -112.43305 15650 ft 260 kts 308°
2026-05-05 06:38 40.81452 -112.44952 15644 ft 259 kts 306°
2026-05-05 06:38 40.82720 -112.46636 15651 ft 258 kts 306°
2026-05-05 06:38 40.84003 -112.48300 15650 ft 258 kts 306°
2026-05-05 06:38 40.85320 -112.49934 15654 ft 260 kts 308°
2026-05-05 06:39 40.86668 -112.51542 15640 ft 262 kts 310°
2026-05-05 06:39 40.88015 -112.53161 15641 ft 262 kts 308°
2026-05-05 06:39 40.89349 -112.54804 15634 ft 261 kts 307°
2026-05-05 06:39 40.90653 -112.56472 15635 ft 260 kts 307°
2026-05-05 06:40 40.91936 -112.58127 15639 ft 260 kts 306°
2026-05-05 06:40 40.93223 -112.59818 15642 ft 259 kts 304°
2026-05-05 06:40 40.94500 -112.61512 15621 ft 260 kts 305°
2026-05-05 06:40 40.95806 -112.63175 15632 ft 260 kts 308°
2026-05-05 06:41 40.97141 -112.64804 15632 ft 260 kts 308°
2026-05-05 06:41 40.98474 -112.66432 15634 ft 260 kts 308°
2026-05-05 06:41 40.99796 -112.68058 15634 ft 260 kts 308°
2026-05-05 06:41 41.01118 -112.69694 15633 ft 259 kts 308°
2026-05-05 06:42 41.02430 -112.71328 15632 ft 259 kts 308°
2026-05-05 06:42 41.03741 -112.72968 15631 ft 259 kts 308°
2026-05-05 06:42 41.05054 -112.74609 15632 ft 259 kts 308°
2026-05-05 06:42 41.06363 -112.76255 15629 ft 259 kts 308°
2026-05-05 06:43 41.07672 -112.77900 15627 ft 259 kts 308°
2026-05-05 06:43 41.08965 -112.79525 15626 ft 259 kts 308°
2026-05-05 06:43 41.10273 -112.81170 15625 ft 259 kts 308°
2026-05-05 06:43 41.11582 -112.82814 15625 ft 259 kts 308°
2026-05-05 06:44 41.12887 -112.84461 15625 ft 259 kts 308°
2026-05-05 06:44 41.14195 -112.86108 15628 ft 259 kts 308°
2026-05-05 06:44 41.15505 -112.87762 15625 ft 259 kts 308°
2026-05-05 06:44 41.16814 -112.89412 15624 ft 259 kts 308°
2026-05-05 06:45 41.18117 -112.91057 15624 ft 258 kts 308°
2026-05-05 06:45 41.19416 -112.92701 15629 ft 257 kts 307°
2026-05-05 06:45 41.20721 -112.94329 15623 ft 257 kts 308°
2026-05-05 06:45 41.22016 -112.95957 15621 ft 256 kts 307°
2026-05-05 06:46 41.23294 -112.97598 15626 ft 255 kts 307°
2026-05-05 06:46 41.24572 -112.99226 15623 ft 254 kts 307°
2026-05-05 06:46 41.25847 -113.00852 15626 ft 254 kts 308°
2026-05-05 06:46 41.27129 -113.02466 15627 ft 253 kts 308°
2026-05-05 06:47 41.28412 -113.04071 15626 ft 253 kts 308°
2026-05-05 06:47 41.29683 -113.05679 15623 ft 252 kts 308°
2026-05-05 06:47 41.30941 -113.07287 15629 ft 250 kts 307°
2026-05-05 06:47 41.32192 -113.08889 15633 ft 249 kts 308°
2026-05-05 06:48 41.33437 -113.10481 15626 ft 248 kts 307°
2026-05-05 06:48 41.34664 -113.12056 15626 ft 247 kts 308°
2026-05-05 06:48 41.35899 -113.13632 15629 ft 246 kts 308°
2026-05-05 06:48 41.37126 -113.15205 15629 ft 244 kts 308°
2026-05-05 06:49 41.38354 -113.16763 15631 ft 243 kts 308°
2026-05-05 06:49 41.39570 -113.18323 15633 ft 242 kts 307°
2026-05-05 06:49 41.40790 -113.19881 15634 ft 243 kts 308°
2026-05-05 06:49 41.42011 -113.21433 15632 ft 242 kts 308°
2026-05-05 06:50 41.43231 -113.22979 15633 ft 242 kts 308°
2026-05-05 06:50 41.44454 -113.24528 15634 ft 242 kts 308°
2026-05-05 06:50 41.45674 -113.26071 15634 ft 242 kts 308°
2026-05-05 06:50 41.46889 -113.27618 15632 ft 242 kts 308°
2026-05-05 06:51 41.48087 -113.29150 15634 ft 241 kts 307°
2026-05-05 06:51 41.49291 -113.30713 15633 ft 241 kts 307°
2026-05-05 06:51 41.50502 -113.32288 15635 ft 245 kts 307°
2026-05-05 06:51 41.51756 -113.33882 15638 ft 252 kts 308°
2026-05-05 06:52 41.53024 -113.35505 15638 ft 254 kts 308°
2026-05-05 06:52 41.54306 -113.37156 15633 ft 256 kts 309°
2026-05-05 06:52 41.55589 -113.38816 15636 ft 258 kts 309°
2026-05-05 06:52 41.56880 -113.40475 15636 ft 258 kts 308°
2026-05-05 06:53 41.58176 -113.42150 15633 ft 259 kts 308°
2026-05-05 06:53 41.59468 -113.43828 15629 ft 259 kts 309°
2026-05-05 06:53 41.60770 -113.45496 15628 ft 259 kts 309°
2026-05-05 06:53 41.62059 -113.47135 15625 ft 259 kts 309°
2026-05-05 06:54 41.63360 -113.48792 15625 ft 258 kts 309°
2026-05-05 06:54 41.64654 -113.50446 15625 ft 257 kts 309°
2026-05-05 06:54 41.65944 -113.52104 15624 ft 257 kts 309°
2026-05-05 06:54 41.67228 -113.53756 15623 ft 256 kts 309°
2026-05-05 06:55 41.68507 -113.55408 15622 ft 255 kts 309°
2026-05-05 06:55 41.69783 -113.57057 15622 ft 254 kts 309°
2026-05-05 06:55 41.71052 -113.58695 15621 ft 253 kts 309°
2026-05-05 06:55 41.72319 -113.60330 15621 ft 252 kts 309°
2026-05-05 06:56 41.73574 -113.61955 15620 ft 251 kts 309°
2026-05-05 06:56 41.74825 -113.63584 15619 ft 250 kts 309°
2026-05-05 06:56 41.76070 -113.65205 15632 ft 249 kts 309°
2026-05-05 06:56 41.77304 -113.66815 15792 ft 247 kts 309°
2026-05-05 06:57 41.78542 -113.68418 15930 ft 248 kts 309°
2026-05-05 06:57 41.79793 -113.70030 15986 ft 251 kts 308°
2026-05-05 06:57 41.81054 -113.71666 16002 ft 254 kts 309°
2026-05-05 06:57 41.82342 -113.73322 16003 ft 257 kts 310°
2026-05-05 06:58 41.83606 -113.74979 15999 ft 258 kts 309°
2026-05-05 06:58 41.84897 -113.76662 16000 ft 258 kts 309°
2026-05-05 06:58 41.86187 -113.78339 16011 ft 258 kts 309°
2026-05-05 06:58 41.87474 -113.80018 16013 ft 258 kts 308°
2026-05-05 06:59 41.88756 -113.81704 16016 ft 258 kts 309°
2026-05-05 06:59 41.90035 -113.83393 16018 ft 259 kts 309°
2026-05-05 06:59 41.91333 -113.85087 16019 ft 260 kts 309°
2026-05-05 06:59 41.92639 -113.86782 16019 ft 261 kts 309°
2026-05-05 07:00 41.93946 -113.88479 16019 ft 261 kts 309°
2026-05-05 07:00 41.95255 -113.90175 16019 ft 262 kts 309°
2026-05-05 07:00 41.96566 -113.91877 16019 ft 262 kts 310°
2026-05-05 07:00 41.97864 -113.93560 16019 ft 263 kts 309°
2026-05-05 07:01 41.99161 -113.95296 16021 ft 263 kts 308°
2026-05-05 07:01 42.00506 -113.96989 16019 ft 264 kts 310°
2026-05-05 07:01 42.01830 -113.98695 16019 ft 263 kts 309°
2026-05-05 07:01 42.03140 -114.00418 16020 ft 263 kts 309°
2026-05-05 07:02 42.04443 -114.02156 16020 ft 263 kts 309°
2026-05-05 07:02 42.05749 -114.03887 16026 ft 264 kts 309°
2026-05-05 07:02 42.07061 -114.05613 16011 ft 264 kts 309°
2026-05-05 07:02 42.08373 -114.07344 16004 ft 264 kts 309°
2026-05-05 07:03 42.09682 -114.09071 16003 ft 264 kts 309°
2026-05-05 07:03 42.10996 -114.10802 16004 ft 264 kts 309°
2026-05-05 07:03 42.12293 -114.12510 16004 ft 264 kts 309°
2026-05-05 07:03 42.13608 -114.14241 16005 ft 264 kts 309°
2026-05-05 07:04 42.14923 -114.15975 16004 ft 264 kts 309°
2026-05-05 07:04 42.16234 -114.17704 16004 ft 264 kts 309°
2026-05-05 07:04 42.17547 -114.19438 16005 ft 264 kts 309°
2026-05-05 07:04 42.18837 -114.21144 16007 ft 264 kts 309°
2026-05-05 07:05 42.20162 -114.22913 16024 ft 263 kts 309°
2026-05-05 07:05 42.21468 -114.24643 16022 ft 264 kts 309°
2026-05-05 07:05 42.22777 -114.26372 16016 ft 264 kts 309°
2026-05-05 07:05 42.24072 -114.28083 16015 ft 264 kts 309°
2026-05-05 07:06 42.25384 -114.29817 16017 ft 264 kts 309°
2026-05-05 07:06 42.26694 -114.31550 16019 ft 264 kts 309°
2026-05-05 07:06 42.28004 -114.33284 16020 ft 264 kts 309°
2026-05-05 07:06 42.29315 -114.35018 16022 ft 263 kts 309°
2026-05-05 07:07 42.30624 -114.36751 16019 ft 264 kts 309°
2026-05-05 07:07 42.31494 -114.37893 16027 ft 263 kts 309°
2026-05-05 07:07 42.32798 -114.39628 16029 ft 263 kts 309°
2026-05-05 07:07 42.34108 -114.41372 16032 ft 264 kts 309°
2026-05-05 07:08 42.35835 -114.43696 16034 ft 263 kts 309°
2026-05-05 07:08 42.36706 -114.44877 16034 ft 263 kts 309°
2026-05-05 07:08 42.38022 -114.46597 16035 ft 264 kts 311°
2026-05-05 07:08 42.39339 -114.48285 16039 ft 263 kts 310°
2026-05-05 07:09 42.40648 -114.50029 16039 ft 263 kts 309°
2026-05-05 07:09 42.41943 -114.51780 16036 ft 264 kts 308°
2026-05-05 07:09 42.43222 -114.53561 16011 ft 265 kts 310°
2026-05-05 07:09 42.44537 -114.55308 16004 ft 264 kts 309°
2026-05-05 07:10 42.45846 -114.57058 16003 ft 264 kts 309°
2026-05-05 07:10 42.47147 -114.58802 16003 ft 263 kts 309°
2026-05-05 07:10 42.48409 -114.60596 15994 ft 263 kts 307°
2026-05-05 07:10 42.49676 -114.62390 16008 ft 263 kts 309°
2026-05-05 07:11 42.50979 -114.64132 16008 ft 263 kts 310°
2026-05-05 07:11 42.52276 -114.65839 16008 ft 263 kts 310°
2026-05-05 07:11 42.53616 -114.67537 15999 ft 263 kts 311°
2026-05-05 07:11 42.54935 -114.69261 16002 ft 263 kts 310°
2026-05-05 07:12 42.56240 -114.71003 16004 ft 263 kts 310°
2026-05-05 07:12 42.57539 -114.72749 16007 ft 263 kts 309°
2026-05-05 07:12 42.58838 -114.74502 16014 ft 263 kts 309°
2026-05-05 07:12 42.60101 -114.76296 16017 ft 262 kts 307°
2026-05-05 07:13 42.61359 -114.78080 16013 ft 263 kts 309°
2026-05-05 07:13 42.62660 -114.79831 16011 ft 263 kts 310°
2026-05-05 07:13 42.63974 -114.81567 16011 ft 263 kts 310°
2026-05-05 07:13 42.65286 -114.83298 16012 ft 263 kts 310°
2026-05-05 07:14 42.66594 -114.85034 16014 ft 263 kts 310°
2026-05-05 07:14 42.67898 -114.86775 16016 ft 263 kts 310°
2026-05-05 07:14 42.69198 -114.88523 16017 ft 263 kts 310°
2026-05-05 07:14 42.70475 -114.90246 16018 ft 262 kts 310°
2026-05-05 07:15 42.71769 -114.91999 16019 ft 262 kts 309°
2026-05-05 07:15 42.73065 -114.93750 16021 ft 262 kts 310°
2026-05-05 07:15 42.74357 -114.95502 16020 ft 262 kts 310°
2026-05-05 07:15 42.75660 -114.97273 15846 ft 269 kts 310°
2026-05-05 07:16 42.76998 -114.99098 15511 ft 276 kts 310°
2026-05-05 07:16 42.78360 -115.00952 15168 ft 276 kts 310°
2026-05-05 07:16 42.79713 -115.02795 14819 ft 273 kts 310°
2026-05-05 07:16 42.81056 -115.04618 14473 ft 271 kts 310°
2026-05-05 07:17 42.82383 -115.06436 14125 ft 269 kts 310°
2026-05-05 07:17 42.83706 -115.08242 13779 ft 268 kts 311°
2026-05-05 07:17 42.85017 -115.10023 13432 ft 266 kts 311°
2026-05-05 07:17 42.86326 -115.11797 13081 ft 264 kts 311°
2026-05-05 07:18 42.87611 -115.13545 12740 ft 263 kts 310°
2026-05-05 07:18 42.88910 -115.15330 12387 ft 261 kts 311°
2026-05-05 07:18 42.90173 -115.17046 12046 ft 259 kts 312°
2026-05-05 07:18 42.91449 -115.18774 11700 ft 258 kts 311°
2026-05-05 07:19 42.92716 -115.20500 11349 ft 256 kts 311°
2026-05-05 07:19 42.93963 -115.22229 11003 ft 255 kts 311°
2026-05-05 07:19 42.95202 -115.23951 10679 ft 253 kts 311°
2026-05-05 07:19 42.96422 -115.25631 10543 ft 246 kts 311°
2026-05-05 07:20 42.97613 -115.27263 10485 ft 239 kts 311°
2026-05-05 07:20 42.98769 -115.28856 10469 ft 234 kts 311°
2026-05-05 07:20 42.99910 -115.30420 10464 ft 231 kts 311°
2026-05-05 07:20 43.01049 -115.31972 10462 ft 231 kts 312°
2026-05-05 07:21 43.02190 -115.33528 10493 ft 231 kts 311°
2026-05-05 07:21 43.03330 -115.35079 10500 ft 232 kts 312°
2026-05-05 07:21 43.04470 -115.36653 10495 ft 232 kts 311°
2026-05-05 07:21 43.05571 -115.38205 10489 ft 229 kts 311°
2026-05-05 07:22 43.06690 -115.39759 10415 ft 230 kts 311°
2026-05-05 07:22 43.07826 -115.41335 10223 ft 234 kts 311°
2026-05-05 07:22 43.08973 -115.42915 10022 ft 233 kts 312°
2026-05-05 07:22 43.10100 -115.44483 9826 ft 229 kts 311°
2026-05-05 07:23 43.11218 -115.46017 9630 ft 227 kts 312°
2026-05-05 07:23 43.12350 -115.47539 9439 ft 230 kts 313°
2026-05-05 07:23 43.13494 -115.49097 9246 ft 233 kts 313°
2026-05-05 07:23 43.14634 -115.50677 9049 ft 235 kts 312°
2026-05-05 07:24 43.15785 -115.52272 8850 ft 235 kts 313°
2026-05-05 07:24 43.16936 -115.53872 8653 ft 235 kts 313°
2026-05-05 07:24 43.18090 -115.55461 8455 ft 235 kts 313°
2026-05-05 07:24 43.19231 -115.57045 8256 ft 231 kts 313°
2026-05-05 07:25 43.20345 -115.58592 8057 ft 226 kts 312°
2026-05-05 07:25 43.21450 -115.60132 7858 ft 226 kts 313°
2026-05-05 07:25 43.22552 -115.61670 7661 ft 225 kts 313°
2026-05-05 07:25 43.23642 -115.63190 7545 ft 221 kts 313°
2026-05-05 07:26 43.24710 -115.64675 7508 ft 216 kts 313°
2026-05-05 07:26 43.25742 -115.66115 7501 ft 213 kts 313°
2026-05-05 07:26 43.26784 -115.67566 7502 ft 214 kts 313°
2026-05-05 07:26 43.27832 -115.69026 7503 ft 215 kts 313°
2026-05-05 07:27 43.28888 -115.70497 7503 ft 216 kts 313°
2026-05-05 07:27 43.29941 -115.71965 7503 ft 216 kts 313°
2026-05-05 07:27 43.30998 -115.73438 7503 ft 216 kts 313°
2026-05-05 07:27 43.32054 -115.74911 7503 ft 217 kts 313°
2026-05-05 07:28 43.33111 -115.76388 7503 ft 217 kts 313°
2026-05-05 07:28 43.34169 -115.77866 7503 ft 217 kts 313°
2026-05-05 07:28 43.35225 -115.79343 7503 ft 217 kts 313°
2026-05-05 07:28 43.36287 -115.80828 7420 ft 220 kts 313°
2026-05-05 07:29 43.37361 -115.82331 7272 ft 219 kts 314°
2026-05-05 07:29 43.38421 -115.83815 7124 ft 215 kts 314°
2026-05-05 07:29 43.39466 -115.85276 6975 ft 213 kts 314°
2026-05-05 07:29 43.40497 -115.86720 6852 ft 210 kts 314°
2026-05-05 07:30 43.41510 -115.88141 6811 ft 206 kts 313°
2026-05-05 07:30 43.43473 -115.90900 6802 ft 201 kts 314°
2026-05-05 07:30 43.44399 -115.92319 6805 ft 199 kts 308°
2026-05-05 07:31 43.45214 -115.93848 6807 ft 197 kts 304°
2026-05-05 07:31 43.45998 -115.95397 6805 ft 197 kts 304°
2026-05-05 07:31 43.46778 -115.96940 6807 ft 196 kts 304°
2026-05-05 07:31 43.47555 -115.98474 6829 ft 186 kts 304°
2026-05-05 07:32 43.48284 -115.99905 6729 ft 184 kts 304°
2026-05-05 07:32 43.49022 -116.01355 6607 ft 186 kts 304°
2026-05-05 07:32 43.49687 -116.02892 6481 ft 187 kts 296°
2026-05-05 07:32 43.50232 -116.04510 6359 ft 186 kts 295°
2026-05-05 07:33 43.50787 -116.06133 6175 ft 189 kts 295°
2026-05-05 07:33 43.51340 -116.07737 5970 ft 177 kts 295°
2026-05-05 07:33 43.51839 -116.09181 5754 ft 159 kts 295°
2026-05-05 07:33 43.52298 -116.10514 5544 ft 151 kts 295°
2026-05-05 07:34 43.52752 -116.11838 5345 ft 154 kts 295°
2026-05-05 07:34 43.53213 -116.13183 5150 ft 156 kts 295°
2026-05-05 07:34 43.53673 -116.14525 4954 ft 157 kts 295°
2026-05-05 07:34 43.54117 -116.15822 4844 ft 128 kts 295°
2026-05-05 07:35 43.54462 -116.16823 4591 ft 107 kts 295°
2026-05-05 07:35 43.54774 -116.17799 4042 ft 111 kts 292°
2026-05-05 07:35 43.55062 -116.18695 3784 ft 98 kts 296°
2026-05-05 07:35 43.55376 -116.19614 3387 ft 112 kts 298°
2026-05-05 07:36 43.55722 -116.20537 3103 ft 102 kts 296°
2026-05-05 07:36 43.56014 -116.21364 2892 ft 88 kts 294°
2026-05-05 07:36 43.56248 -116.21997 2874 ft 63 kts 295°
2026-05-05 07:36 43.56354 -116.22446 2874 ft 57 kts 261°